STARLINK-37370, 68806

Orbit data source: Space-Track

STARLINK-37370, 68806 is a payload satellite owned by SpaceX/Seattle (US) in SSO that was launched on Thu, 23 Apr 2026 UTC via an FALCON 9 launch vehicle from the Air Force Western Test Range (AFWTR). Payload-class satellites include a variety of spacecraft equipped with specific instruments for various scientific and technological missions. These include communications satellites like Starlink; space stations such as the ISS; scientific satellites like the Hubble; Earth observation satellites from companies like Planet Labs, Umbra, and HawkEye 360; GPS; miniature CubeSats for education and research; and military/defense satellites.

Loading next visibility...
Identifier
68806, 2026-089E
Orbit
SSO
Country
Flag of USUS
Related business
Manufacturer
SpaceX/Seattle
Mission
Operational spacecraft
Bus & Motor
STARLINK V2MO, Unknown motor
Mass
575 kg wet, ~530 kg dry
Launch date (UTC)
2026-04-23 (1 week ago)
Launch vehicle
FALCON 9
Launch site
Air Force Western Test Range (AFWTR)
Object type
Payload
Rocket body
Debris
Shape & HBR
Unknown
Radar Cross Section
RCS unknown

Expand to show TLE details & history
Last TLE update: 8 hours ago

TLE from 8 hours ago
0 STARLINK-37370
1 68806U 26089E   26121.16670139 -.02096410  00000-0 -97224-2 0  9998
2 68806  97.2858 326.6005 0001663 102.1069 179.5618 15.86441118  2442
Epoch: 2026-05-01T04:00Z
TLE epoch observation values (Epoch: 2026-05-01T04:00:03.000Z)
Latitude
-76.37527°
Longitude
79.1205°
Altitude
340.926 km
Speed
7.702 km/s
True Right ascension
23h 52m 56s
True Declination
-76° 17' 29"
Sunlit
Object was in daylight at epoch
Visualization orbit readout
Latitude
Unknown
Longitude
Unknown
Altitude
Unknown
Speed
Unknown
Apparent Right ascension
Unknown
Apparent Declination
Unknown
Sunlit
N/A
Visualization observer readout
Local Sidereal Time
19:18:30
Azimuth
Unknown
Elevation
Unknown
Doppler factor
Unknown
Orbital elements
Apogee altitude
310.255 km
Perigee altitude
308.03 km
Semi-major axis
6,687.28 km
Eccentricity
0.00017
Inclination
97.2858°
RAAN
326.6005°
Arg. of periapsis
102.1069°
True anomaly
179.56195°
Mean anomaly
179.5618°
Eccentric anomaly
179.56187°
Mean motion
3.96889 °/min
Orbital period
90.71 mins
BSTAR
-0.0097224
Loading maneuver chart data...
Computing Atmospheric mass density...
Loading historical data...
Loading historical data...
Loading historical data...
Loading historical data...
Loading historical data...
Loading historical data...
Loading historical data...

Documentation

Showing up to 5 results
|